Regional Weather Roundup
Issued by NWS Charleston, SC

Current Version | Previous Version | Graphics & Text | Print | Product List | Glossary On
Versions: 1 2 3 4 5 6 7 8 9 10 11 12 13 14 15 16 17 18 19 20 21 22 23 24 25 26 27 28 29 30 31 32 33 34 35 36 37 38 39 40 41 42 43 44 45 46 47 48 49 50
043 ASUS42 KCHS 251112 RWRCHS REGIONAL WEATHER ROUNDUP NATIONAL WEATHER SERVICE CHARLESTON SC 700 AM EDT SAT MAR 25 2017 NOTE: "FAIR" INDICATES FEW OR NO CLOUDS BELOW 12,000 FEET WITH NO SIGNIFICANT WEATHER AND/OR OBSTRUCTIONS TO VISIBILITY. NOT ALL STATIONS ARE QUALITY CONTROLLED. USE DATA WITH CAUTION... ESPECIALLY DEWPOINT OBSERVATIONS. SCZ027-030-031-034>040-042>050-251200- ...SOUTHEAST SOUTH CAROLINA... CITY SKY/WX TMP DP RH WIND PRES REMARKS N CHARLESTON MOCLDY 56 53 90 CALM 30.30R WATERFRONT PRK N/A 63 58 84 SE6 30.29R JOHNS ISLAND FAIR 63 55 77 CALM 30.31R PINOPOLIS N/A 57 55 94 CALM 30.21R MONCKS CORNER FAIR 52 50 93 CALM 30.31R SUMMERVILLE FAIR 54 52 94 CALM 30.31S BEAUFORT MCAS CLOUDY 57 56 96 CALM 30.29R BEAUFORT ARPT FAIR 57 55 94 CALM 30.29R HILTON HEAD IS PTCLDY 63 57 82 SE5 30.29R WALTERBORO CLOUDY 54 52 94 CALM 30.31R ALLENDALE CLOUDY 54 52 94 CALM 30.29R ...SOUTHERN MIDLANDS AND PEE DEE... CITY SKY/WX TMP DP RH WIND PRES REMARKS GEORGETOWN CLOUDY 55 54 94 CALM 30.33R KINGSTREE CLOUDY 54 50 87 CALM 30.31S ORANGEBURG PTCLDY 52 51 97 N3 30.31R BARNWELL FAIR 52 50 93 CALM 30.31R AIKEN FAIR 48 48 100 CALM 30.34R MANNING PTSUNNY 55 52 88 CALM 30.31R COLUMBIA CLOUDY 53 49 86 CALM 30.31R SUMTER CLOUDY 50 48 92 CALM 30.29R FLORENCE PTCLDY 52 52 100 CALM 30.32R MYRTLE BEACH MOCLDY 63 55 77 S7 30.33R N MYRTLE BEACH CLOUDY 57 56 96 CALM 30.32R $$ GAZ063-065-086>088-099>101-113>116-118-119-134>141-150-251200- ...SOUTHEAST GEORGIA... CITY SKY/WX TMP DP RH WIND PRES REMARKS SAVANNAH ARPT MOCLDY 60 55 83 E5 30.28R HUNTER AAF MOCLDY 64 58 81 SE6 30.25R FORT STEWART CLOUDY 53 51 93 N3 30.25R STATESBORO PTCLDY 52 32 46 CALM 30.29R FOG SYLVANIA MOSUNNY N/A N/A N/A CALM 30.30R CLAXTON FAIR N/A N/A N/A CALM 30.29R ...CSRA...CENTRAL AND FAR SOUTHEAST GEORGIA... CITY SKY/WX TMP DP RH WIND PRES REMARKS THOMSON CLOUDY 50 48 94 SE5 30.34S AUGUSTA-BUSH CLEAR 52 50 93 CALM 30.31R AUGUSTA-DANIEL PTCLDY 58 52 80 CALM 30.31R SWAINSBORO FAIR 54 54 100 CALM 30.29R VIDALIA CLEAR 55 54 94 NE3 30.27S EASTMAN FAIR 54 54 100 CALM 30.30R HAZLEHURST FAIR 59 59 100 CALM 30.26R ALMA PTCLDY 53 53 100 CALM 30.26R WAYCROSS PTCLDY 57 57 100 CALM 30.25S JESUP FAIR 54 50 87 CALM 30.27R BAXLEY FAIR 54 54 100 CALM 30.27R BRUNSWICK CLOUDY 64 61 88 SE5 30.26S SAINT SIMONS CLOUDY 64 58 80 E6 30.25R $$ SCZ027-028-034-036>038-045-046-048>050-GAZ119-141-251200- ...LAKE AND SUPPLEMENTAL COASTAL OBSERVATIONS... STATION/POSITION TIME TEMP WIND PRES WAVE SWELL AIR SEA DIR/SP/G HT/PER HT/PER/DIR (UTC) (F) (DEG/KT/KT) (MB) (FT/S) (FT/S/D) WINYAH BAY NOT AVBL LAKE MURRAY 1020 56 CALM 1025.7 ACE BASIN NERRS 0945 62 130/ 2 1025.0 FORT PULASKI 1048 63 61 130/ 3/ 4 1025.4R SAPELO ISLAND 1000 64 130/ 5 1024.0 $$ ANZ835-935-AMZ111-154-330-350-352-354-370-450-454-472-251200- ...C-MAN AND BUOY OBSERVATIONS... STATION/POSITION TIME TEMP WIND PRES WAVE SWELL AIR SEA DIR/SP/G HT/PER HT/PER/DIR (UTC) (F) (DEG/KT/KT) (MB) (FT/S) (FT/S/D) BUOY 41004 0950 69 71 160/ 12/ 16 1025.4 4/ 8 3/130/ 8 BUOY 41008 0950 64 62 120/ 10/ 10 1023.7 5/ 8 5/120/ 8 FOLLY BEACH CMAN 1100 64 160/ 8/ 9 1026.7R CAPERS NEARSHORE 1008 62 140/ 6/ 10 1025.6R FRIPP NEARSHORE 1008 63 60 120/ 8/ 10 1024.8R STATION/POSITION TIME TEMP WIND PRES WAVE SWELL AIR SEA DIR/SP/G HT/PER HT/PER/DIR (UTC) (F) (DEG/KT/KT) (MB) (FT/S) (FT/S/D) 5E ST. MARYS GA 1030 64 N/A 5/ 8 2/110/11 FRYING PAN BUOY 1050 69 74 170/ 10/ 14 1026.5F 3/ 7 2/120/ 7 BUOY 41025 1050 69 76 240/ 14/ 16 1026.8F 4/ 5 2/110/10 CAPE LOOKOUT NC 1100 64 230/ 6/ 7 1026.5F BUOY 41002 0950 64 73 90/ 8/ 10 1028.5 5/ 8 5/100/ 8 BUOY 41010 NOT AVBL ST AUGUSTINE FL 1100 67 66 130/ 12/ 13 1024.0S $$

USA.gov is the U.S. government's official web portal to all federal, state and local government web resources and services.